Location: Downe
(51.3167°N, 0.0500°E)
Time: 16:24:36
(UTC+00:00)

STARLINK-60 - Pass Details

Date: 17 November 2019
Orbit: 416 x 424 km, 53.0° (Epoch: 10 December)

Event Time Altitude Azimuth Distance (km) Brightness Sun altitude
Exits shadow 05:48:21 29° 289° (WNW) 806 3.9 -14.1°
Maximum altitude 05:49:52 63° 2° (N) 471 3.2 -13.9°
Drops below altitude 10° 05:53:12 10° 85° (E) 1,498 7.1 -13.4°
Sets 05:55:19 0° 88° (E) 2,363 8.5 -13.0°
